New Ulm, MN

12:56 AM CDT on March 24, 2017 (GMT -0500)
New Ulm Municipal

Weather History for KULM - October, 2013

Change the Weather History Date:

Friday, October 4, 2013

  Actual Average Record
Temperature  
Mean Temperature 55 °F -  
Max Temperature 57 °F 67 °F 88 °F (1987)
Min Temperature 53 °F 41 °F 24 °F (1989)
Degree Days  
Heating Degree Days 10    
Growing Degree Days 5 (Base 50)    
Moisture  
Dew Point 56 °F    
Average Humidity 100    
Maximum Humidity 100    
Minimum Humidity 100    
Precipitation  
Precipitation 0.50 in - - ()
Sea Level Pressure  
Sea Level Pressure 29.88 in    
Wind  
Wind Speed 11 mph (ENE)    
Max Wind Speed 20 mph    
Max Gust Speed 26 mph    
Visibility 6 miles    
Events Rain , Thunderstorm    
Averages and records for this station are not official NWS values.
T = Trace of Precipitation, MM = Missing Value Source: NWS Daily Summary

Daily Weather History Graph

Daily Weather History Graph

Search for Another Location

Airport or City:

Trip Planner

Search our weather history database for the weather conditions in past years. The results will help you decide how hot, cold, wet, or windy it might be!

Date:

Astronomy

Oct. 04, 2013 Rise Set
Actual Time 7:19 AM CDT 6:52 PM CDT
Civil Twilight 6:50 AM CDT 7:21 PM CDT
Nautical Twilight 6:17 AM CDT 7:55 PM CDT
Astronomical Twilight 5:43 AM CDT 8:29 PM CDT
Moon 6:56 AM CDT (10/4) 6:34 PM CDT (10/4)
Length of Visible Light 12h 30m
Length of Day
11h 33m
Waning Crescent, 0% of the Moon is Illuminated
Oct 4
Waning Crescent
Oct 4
New
Oct 11
First Quarter
Oct 18
Full
Oct 26
Last Quarter

Hourly Weather History & Observations

Time (CDT) Temp. Dew Point Humidity Pressure Visibility Wind Dir Wind Speed Gust Speed Precip Events Conditions
12:12 AM 55.4 °F 55.4 °F 100% 29.92 in 5.0 mi NNE 10.4 mph - N/A   Mostly Cloudy
12:33 AM 55.4 °F 55.4 °F 100% 29.92 in 5.0 mi NNE 6.9 mph - N/A   Mostly Cloudy
12:53 AM 55.4 °F 55.4 °F 100% 29.91 in 5.0 mi NNE 9.2 mph - N/A   Overcast
1:12 AM 55.4 °F 55.4 °F 100% 29.92 in 5.0 mi NNE 9.2 mph 16.1 mph N/A   Overcast
1:33 AM 55.4 °F 55.4 °F 100% 29.91 in 10.0 mi NNE 10.4 mph - N/A   Overcast
1:53 AM 55.4 °F 55.4 °F 100% 29.93 in 10.0 mi NE 10.4 mph - N/A   Overcast
2:13 AM 55.4 °F 55.4 °F 100% 29.93 in 7.0 mi NNE 10.4 mph 16.1 mph N/A   Overcast
2:32 AM 53.6 °F 53.6 °F 100% 29.93 in 10.0 mi NE 10.4 mph - N/A   Overcast
2:53 AM 53.6 °F 53.6 °F 100% 29.92 in 10.0 mi NNE 10.4 mph - N/A   Overcast
3:13 AM 53.6 °F 53.6 °F 100% 29.92 in 10.0 mi NE 5.8 mph 10.4 mph N/A   Overcast
3:32 AM 53.6 °F 53.6 °F 100% 29.93 in 10.0 mi NE 10.4 mph - N/A   Overcast
3:53 AM 53.6 °F 53.6 °F 100% 29.93 in 10.0 mi NE 8.1 mph - N/A   Overcast
4:13 AM 53.6 °F 53.6 °F 100% 29.91 in 7.0 mi NE 12.7 mph - N/A   Overcast
4:32 AM 53.6 °F 53.6 °F 100% 29.91 in 7.0 mi NE 12.7 mph 18.4 mph N/A   Overcast
4:53 AM 53.6 °F 53.6 °F 100% 29.92 in 7.0 mi ENE 6.9 mph - N/A   Overcast
5:13 AM 53.6 °F 53.6 °F 100% 29.93 in 5.0 mi ENE 8.1 mph - N/A   Mostly Cloudy
5:32 AM 53.6 °F 53.6 °F 100% 29.92 in 5.0 mi ENE 9.2 mph - N/A   Overcast
5:53 AM 53.6 °F 53.6 °F 100% 29.93 in 5.0 mi NE 8.1 mph - N/A   Mostly Cloudy
6:13 AM 53.6 °F 53.6 °F 100% 29.93 in 5.0 mi ENE 8.1 mph - N/A   Overcast
6:32 AM 53.6 °F 53.6 °F 100% 29.95 in 5.0 mi East 5.8 mph - N/A   Overcast
6:53 AM 53.6 °F 53.6 °F 100% 29.94 in 5.0 mi ENE 8.1 mph - N/A   Overcast
7:13 AM 53.6 °F 53.6 °F 100% 29.93 in 5.0 mi NE 10.4 mph - N/A   Mostly Cloudy
7:32 AM 53.6 °F 53.6 °F 100% 29.92 in 3.0 mi NE 10.4 mph 17.3 mph N/A   Overcast
7:53 AM 55.4 °F 55.4 °F 100% 29.90 in 2.5 mi NE 11.5 mph - N/A   Overcast
8:13 AM 55.4 °F 55.4 °F 100% 29.91 in 2.5 mi ENE 9.2 mph 16.1 mph N/A   Overcast
8:32 AM 55.4 °F 55.4 °F 100% 29.91 in 3.0 mi NE 6.9 mph - N/A   Overcast
8:53 AM 55.4 °F 55.4 °F 100% 29.91 in 3.0 mi NE 12.7 mph - N/A   Overcast
9:13 AM 55.4 °F 55.4 °F 100% 29.92 in 2.5 mi ENE 9.2 mph 17.3 mph N/A   Overcast
9:32 AM 55.4 °F 55.4 °F 100% 29.92 in 2.5 mi ENE 10.4 mph 17.3 mph N/A   Mostly Cloudy
9:53 AM 55.4 °F 55.4 °F 100% 29.91 in 3.0 mi NE 11.5 mph 17.3 mph N/A   Scattered Clouds
10:13 AM 55.4 °F 55.4 °F 100% 29.92 in 4.0 mi ENE 11.5 mph 20.7 mph N/A   Scattered Clouds
10:32 AM 55.4 °F 55.4 °F 100% 29.92 in 5.0 mi ENE 11.5 mph 17.3 mph N/A   Mostly Cloudy
10:53 AM 55.4 °F 55.4 °F 100% 29.93 in 5.0 mi ENE 12.7 mph 19.6 mph N/A   Mostly Cloudy
11:13 AM 55.4 °F 55.4 °F 100% 29.93 in 5.0 mi ENE 8.1 mph 19.6 mph N/A   Overcast
11:32 AM 55.4 °F 55.4 °F 100% 29.94 in 5.0 mi ENE 10.4 mph - N/A   Mostly Cloudy
11:53 AM 55.4 °F 55.4 °F 100% 29.94 in 2.0 mi East 10.4 mph - N/A   Mostly Cloudy
12:13 PM 55.4 °F 55.4 °F 100% 29.93 in 1.8 mi ENE 10.4 mph - N/A Rain Light Rain
12:32 PM 55.4 °F 55.4 °F 100% 29.93 in 1.8 mi East 10.4 mph 18.4 mph N/A   Mist
12:53 PM 55.4 °F 55.4 °F 100% 29.92 in 1.8 mi ENE 9.2 mph 16.1 mph N/A   Mist
1:13 PM 55.4 °F 55.4 °F 100% 29.92 in 1.5 mi East 13.8 mph 17.3 mph N/A   Mist
1:32 PM 55.4 °F 55.4 °F 100% 29.90 in 1.5 mi East 12.7 mph - N/A   Mist
1:53 PM 55.4 °F 55.4 °F 100% 29.88 in 2.5 mi East 10.4 mph 23.0 mph N/A   Scattered Clouds
2:13 PM 57.2 °F 57.2 °F 100% 29.88 in 5.0 mi East 12.7 mph 23.0 mph N/A   Mostly Cloudy
2:32 PM 57.2 °F 57.2 °F 100% 29.88 in 5.0 mi ENE 12.7 mph 17.3 mph N/A   Overcast
2:53 PM 57.2 °F 57.2 °F 100% 29.87 in 7.0 mi East 12.7 mph 18.4 mph N/A   Overcast
3:13 PM 57.2 °F 57.2 °F 100% 29.87 in 7.0 mi East 13.8 mph 21.9 mph N/A   Overcast
3:32 PM 57.2 °F 57.2 °F 100% 29.88 in 7.0 mi East 13.8 mph 18.4 mph N/A   Overcast
3:53 PM 57.2 °F 57.2 °F 100% 29.88 in 4.0 mi East 13.8 mph 20.7 mph N/A   Overcast
4:13 PM 57.2 °F 57.2 °F 100% 29.88 in 2.5 mi East 10.4 mph - N/A   Overcast
4:32 PM 57.2 °F 57.2 °F 100% 29.86 in 2.0 mi ENE 10.4 mph 17.3 mph N/A   Mostly Cloudy
4:53 PM 57.2 °F 57.2 °F 100% 29.86 in 4.0 mi East 11.5 mph 16.1 mph N/A   Mostly Cloudy
5:13 PM 57.2 °F 57.2 °F 100% 29.86 in 5.0 mi East 9.2 mph - N/A   Overcast
5:32 PM 57.2 °F 57.2 °F 100% 29.86 in 7.0 mi East 10.4 mph 20.7 mph N/A   Overcast
5:53 PM 57.2 °F 57.2 °F 100% 29.85 in 10.0 mi ENE 11.5 mph 21.9 mph N/A   Overcast
6:13 PM 57.2 °F 57.2 °F 100% 29.83 in 10.0 mi ENE 12.7 mph 20.7 mph N/A Thunderstorm Overcast
6:32 PM 57.2 °F 57.2 °F 100% 29.83 in 7.0 mi ENE 13.8 mph 20.7 mph N/A   Overcast
6:53 PM 57.2 °F 57.2 °F 100% 29.83 in 7.0 mi ENE 12.7 mph 24.2 mph N/A   Overcast
7:13 PM 57.2 °F 57.2 °F 100% 29.83 in 7.0 mi ENE 12.7 mph 21.9 mph N/A   Overcast
7:32 PM 57.2 °F 57.2 °F 100% 29.83 in 5.0 mi East 15.0 mph 23.0 mph N/A Thunderstorm Overcast
7:53 PM 57.2 °F 57.2 °F 100% 29.83 in 5.0 mi East 17.3 mph 24.2 mph N/A   Overcast
8:13 PM 57.2 °F 57.2 °F 100% 29.82 in 5.0 mi East 16.1 mph 20.7 mph N/A   Overcast
8:32 PM 57.2 °F 57.2 °F 100% 29.81 in 5.0 mi East 16.1 mph 26.5 mph N/A   Overcast
8:53 PM 57.2 °F 57.2 °F 100% 29.80 in 4.0 mi East 16.1 mph 23.0 mph N/A Thunderstorm Overcast
9:13 PM 57.2 °F 57.2 °F 100% 29.78 in 4.0 mi East 12.7 mph 24.2 mph N/A Rain Light Rain
9:32 PM 57.2 °F 57.2 °F 100% 29.79 in 4.0 mi East 13.8 mph 23.0 mph 0.01 in Rain Light Rain
9:53 PM 57.2 °F 57.2 °F 100% 29.76 in 7.0 mi East 19.6 mph 25.3 mph 0.02 in Rain Light Rain
10:13 PM 57.2 °F 57.2 °F 100% 29.78 in 7.0 mi East 16.1 mph 25.3 mph N/A Thunderstorm Unknown
10:33 PM 57.2 °F 57.2 °F 100% 29.76 in 1.8 mi ENE 11.5 mph 19.6 mph 0.44 in Rain , Thunderstorm Heavy Thunderstorms and Rain
10:53 PM 57.2 °F 57.2 °F 100% 29.80 in 10.0 mi East 13.8 mph 19.6 mph 0.48 in Rain , Thunderstorm Light Thunderstorms and Rain
11:13 PM 57.2 °F 57.2 °F 100% 29.78 in 10.0 mi East 11.5 mph 17.3 mph N/A   Overcast
11:32 PM 57.2 °F 57.2 °F 100% 29.76 in 10.0 mi ENE 10.4 mph 20.7 mph N/A   Overcast
11:53 PM 57.2 °F 57.2 °F 100% 29.76 in 10.0 mi ENE 10.4 mph 18.4 mph N/A   Overcast